Time,TemperatureF,DewpointF,PressureIn,WindDirection,WindDirectionDegrees,WindSpeedMPH,WindSpeedGustMPH,Humidity,HourlyPrecipIn,Conditions,Clouds,dailyrainin,SoftwareType,DateUTC
2013-06-22 00:00:00,75.2,72.1,30.12,SSE,160,0.0,0.0,90,0.00,RA,,0.00,WeatherDisplay:10.37,2013-06-22 04:00:00,
2013-06-22 00:01:00,75.2,72.1,30.12,SSE,161,0.0,0.0,90,0.00,RA,,0.00,WeatherDisplay:10.37,2013-06-22 04:01:00,
2013-06-22 00:06:00,75.1,72.0,30.12,SSE,160,0.0,0.0,90,0.00,RA,,0.00,WeatherDisplay:10.37,2013-06-22 04:06:00,
2013-06-22 00:11:00,74.9,72.1,30.12,SSE,160,0.0,0.0,91,0.00,CLR,,0.00,WeatherDisplay:10.37,2013-06-22 04:11:00,
2013-06-22 00:16:00,74.8,72.0,30.12,SSE,161,0.0,0.0,91,0.00,CLR,,0.00,WeatherDisplay:10.37,2013-06-22 04:16:00,
2013-06-22 00:21:00,74.8,72.0,30.12,SSE,161,0.0,0.0,91,0.00,CLR,,0.00,WeatherDisplay:10.37,2013-06-22 04:21:00,
2013-06-22 00:26:00,74.7,71.9,30.12,SSE,161,0.0,0.0,91,0.00,CLR,,0.00,WeatherDisplay:10.37,2013-06-22 04:26:00,
2013-06-22 00:31:00,74.7,71.9,30.12,SSE,161,0.0,0.0,91,0.00,CLR,,0.00,WeatherDisplay:10.37,2013-06-22 04:31:00,
2013-06-22 00:36:00,74.6,71.8,30.12,SSE,161,0.0,0.0,91,0.00,CLR,,0.00,WeatherDisplay:10.37,2013-06-22 04:36:00,
2013-06-22 00:41:00,74.5,71.7,30.12,SSE,160,0.0,0.0,91,0.00,CLR,,0.00,WeatherDisplay:10.37,2013-06-22 04:41:00,
2013-06-22 00:46:00,74.4,71.6,30.12,SSE,161,0.0,0.0,91,0.00,CLR,,0.00,WeatherDisplay:10.37,2013-06-22 04:46:00,
2013-06-22 00:51:00,74.3,71.5,30.12,SSE,161,0.0,0.0,91,0.00,CLR,,0.00,WeatherDisplay:10.37,2013-06-22 04:51:00,
2013-06-22 00:56:00,74.2,71.7,30.11,SSE,161,0.0,0.0,92,0.00,CLR,,0.00,WeatherDisplay:10.37,2013-06-22 04:56:00,
2013-06-22 01:01:00,74.1,71.6,30.11,SSE,161,0.0,0.0,92,0.00,CLR,,0.00,WeatherDisplay:10.37,2013-06-22 05:01:00,
2013-06-22 01:06:00,74.1,71.6,30.11,SSE,161,0.0,0.0,92,0.00,CLR,,0.00,WeatherDisplay:10.37,2013-06-22 05:06:00,
2013-06-22 01:11:00,74.0,71.5,30.11,SSE,161,0.0,0.0,92,0.00,CLR,,0.00,WeatherDisplay:10.37,2013-06-22 05:11:00,
2013-06-22 01:16:00,73.9,71.4,30.11,SSE,160,0.0,0.0,92,0.00,CLR,,0.00,WeatherDisplay:10.37,2013-06-22 05:16:00,
2013-06-22 01:21:00,73.8,71.3,30.11,SSE,161,0.0,0.0,92,0.00,CLR,,0.00,WeatherDisplay:10.37,2013-06-22 05:21:00,
2013-06-22 01:26:00,73.8,71.3,30.11,SSE,161,0.0,0.0,92,0.00,CLR,,0.00,WeatherDisplay:10.37,2013-06-22 05:26:00,
2013-06-22 01:31:00,73.7,71.5,30.11,SSE,161,0.0,0.0,93,0.00,CLR,,0.00,WeatherDisplay:10.37,2013-06-22 05:31:00,
2013-06-22 01:36:00,73.6,71.4,30.11,SSE,160,0.0,0.0,93,0.00,CLR,,0.00,WeatherDisplay:10.37,2013-06-22 05:36:00,
2013-06-22 01:41:00,73.5,71.4,30.11,SSE,160,0.0,0.0,93,0.00,CLR,,0.00,WeatherDisplay:10.37,2013-06-22 05:41:00,
2013-06-22 01:46:00,73.5,71.4,30.11,SSE,161,0.0,0.0,93,0.00,CLR,,0.00,WeatherDisplay:10.37,2013-06-22 05:46:00,
2013-06-22 01:51:00,73.4,71.3,30.11,SSE,160,0.0,0.0,93,0.00,CLR,,0.00,WeatherDisplay:10.37,2013-06-22 05:51:00,
2013-06-22 01:56:00,73.3,71.2,30.11,SSE,161,0.0,0.0,93,0.00,CLR,,0.00,WeatherDisplay:10.37,2013-06-22 05:56:00,
2013-06-22 02:01:00,73.2,71.1,30.11,SSE,160,0.0,0.0,93,0.00,CLR,,0.00,WeatherDisplay:10.37,2013-06-22 06:01:00,
2013-06-22 02:06:00,73.1,71.0,30.10,SSE,161,0.0,0.0,93,0.00,CLR,,0.00,WeatherDisplay:10.37,2013-06-22 06:06:00,
2013-06-22 02:11:00,73.1,71.0,30.10,SSE,160,0.0,0.0,93,0.00,CLR,,0.00,WeatherDisplay:10.37,2013-06-22 06:11:00,
2013-06-22 02:16:00,73.0,70.9,30.10,SSE,161,0.0,0.0,93,0.00,CLR,,0.00,WeatherDisplay:10.37,2013-06-22 06:16:00,
2013-06-22 02:21:00,73.0,70.9,30.10,SSE,161,0.0,0.0,93,0.00,CLR,,0.00,WeatherDisplay:10.37,2013-06-22 06:21:00,
2013-06-22 02:26:00,73.0,70.9,30.10,SSE,161,0.0,0.0,93,0.00,CLR,,0.00,WeatherDisplay:10.37,2013-06-22 06:26:00,
2013-06-22 02:31:00,73.0,71.2,30.10,SSE,161,0.0,0.0,94,0.00,CLR,,0.00,WeatherDisplay:10.37,2013-06-22 06:31:00,
2013-06-22 02:36:00,73.0,71.2,30.10,SSE,160,0.0,0.0,94,0.00,CLR,,0.00,WeatherDisplay:10.37,2013-06-22 06:36:00,
2013-06-22 02:41:00,72.9,71.1,30.09,SSE,161,0.0,0.0,94,0.00,CLR,,0.00,WeatherDisplay:10.37,2013-06-22 06:41:00,
2013-06-22 02:46:00,72.9,71.1,30.09,SSE,161,0.0,0.0,94,0.00,CLR,,0.00,WeatherDisplay:10.37,2013-06-22 06:46:00,
2013-06-22 02:51:00,72.9,71.1,30.09,SSE,160,0.0,0.0,94,0.00,CLR,,0.00,WeatherDisplay:10.37,2013-06-22 06:51:00,
2013-06-22 02:56:00,72.9,71.1,30.09,SSE,161,0.0,0.0,94,0.00,CLR,,0.00,WeatherDisplay:10.37,2013-06-22 06:56:00,
2013-06-22 03:01:00,72.9,71.1,30.08,SSE,160,0.0,0.0,94,0.00,CLR,,0.00,WeatherDisplay:10.37,2013-06-22 07:01:00,
2013-06-22 03:06:00,72.8,71.0,30.08,SSE,161,0.0,0.0,94,0.00,CLR,,0.00,WeatherDisplay:10.37,2013-06-22 07:06:00,
2013-06-22 03:11:00,72.8,71.0,30.08,SSE,161,0.0,0.0,94,0.00,CLR,,0.00,WeatherDisplay:10.37,2013-06-22 07:11:00,
2013-06-22 03:16:00,72.8,71.0,30.08,SSE,161,0.0,0.0,94,0.00,CLR,,0.00,WeatherDisplay:10.37,2013-06-22 07:16:00,
2013-06-22 03:21:00,72.8,71.0,30.08,SSE,161,0.0,0.0,94,0.00,CLR,,0.00,WeatherDisplay:10.37,2013-06-22 07:21:00,
2013-06-22 03:26:00,72.8,71.0,30.09,SSE,161,0.0,0.0,94,0.00,CLR,,0.00,WeatherDisplay:10.37,2013-06-22 07:26:00,
2013-06-22 03:31:00,72.8,71.0,30.08,SSE,161,0.0,0.0,94,0.00,CLR,,0.00,WeatherDisplay:10.37,2013-06-22 07:31:00,
2013-06-22 03:36:00,72.8,71.0,30.09,SSE,161,0.0,0.0,94,0.00,CLR,,0.00,WeatherDisplay:10.37,2013-06-22 07:36:00,
2013-06-22 03:41:00,72.8,71.0,30.09,SSE,161,0.0,0.0,94,0.00,CLR,,0.00,WeatherDisplay:10.37,2013-06-22 07:41:00,
2013-06-22 03:46:00,72.7,70.9,30.09,SSE,161,0.0,0.0,94,0.00,CLR,,0.00,WeatherDisplay:10.37,2013-06-22 07:46:00,
2013-06-22 03:51:00,72.7,70.9,30.09,SSE,161,0.0,0.0,94,0.00,CLR,,0.00,WeatherDisplay:10.37,2013-06-22 07:51:00,
2013-06-22 03:56:00,72.7,70.9,30.08,SSE,161,0.0,0.0,94,0.00,CLR,,0.00,WeatherDisplay:10.37,2013-06-22 07:56:00,
2013-06-22 04:01:00,72.7,70.9,30.09,SSE,161,0.0,0.0,94,0.00,CLR,,0.00,WeatherDisplay:10.37,2013-06-22 08:01:00,
2013-06-22 04:06:00,72.7,70.9,30.09,SSE,161,0.0,0.0,94,0.00,CLR,,0.00,WeatherDisplay:10.37,2013-06-22 08:06:00,
2013-06-22 04:11:00,72.7,70.9,30.09,SSE,160,0.0,0.0,94,0.00,CLR,,0.00,WeatherDisplay:10.37,2013-06-22 08:11:00,
2013-06-22 04:16:00,72.6,70.8,30.09,SSE,161,0.0,0.0,94,0.00,CLR,,0.00,WeatherDisplay:10.37,2013-06-22 08:16:00,
2013-06-22 04:21:00,72.6,70.8,30.09,SSE,161,0.0,0.0,94,0.00,CLR,,0.00,WeatherDisplay:10.37,2013-06-22 08:21:00,
2013-06-22 04:26:00,72.6,70.8,30.09,SSE,161,0.0,0.0,94,0.00,CLR,,0.00,WeatherDisplay:10.37,2013-06-22 08:26:00,
2013-06-22 04:31:00,72.6,70.8,30.09,SSE,160,0.0,0.0,94,0.00,CLR,,0.00,WeatherDisplay:10.37,2013-06-22 08:31:00,
2013-06-22 04:36:00,72.6,71.1,30.09,SSE,161,0.0,0.0,95,0.00,CLR,,0.00,WeatherDisplay:10.37,2013-06-22 08:36:00,
2013-06-22 04:41:00,72.6,71.1,30.09,SSE,161,0.0,0.0,95,0.00,CLR,,0.00,WeatherDisplay:10.37,2013-06-22 08:41:00,
2013-06-22 04:46:00,72.6,71.1,30.09,SSE,160,0.0,0.0,95,0.00,CLR,,0.00,WeatherDisplay:10.37,2013-06-22 08:46:00,
2013-06-22 04:51:00,72.6,71.1,30.09,SSE,160,0.0,0.0,95,0.00,CLR,,0.00,WeatherDisplay:10.37,2013-06-22 08:51:00,
2013-06-22 04:56:00,72.7,71.2,30.09,SSE,161,0.0,0.0,95,0.00,CLR,,0.00,WeatherDisplay:10.37,2013-06-22 08:56:00,
2013-06-22 05:01:00,72.7,71.2,30.09,SSE,161,0.0,0.0,95,0.00,CLR,,0.00,WeatherDisplay:10.37,2013-06-22 09:01:00,
2013-06-22 05:06:00,72.7,71.2,30.09,SSE,161,0.0,0.0,95,0.00,CLR,,0.00,WeatherDisplay:10.37,2013-06-22 09:06:00,
2013-06-22 05:11:00,72.7,71.2,30.09,SSE,161,0.0,0.0,95,0.00,CLR,,0.00,WeatherDisplay:10.37,2013-06-22 09:11:00,
2013-06-22 05:16:00,72.8,71.3,30.09,SSE,161,0.0,0.0,95,0.00,CLR,,0.00,WeatherDisplay:10.37,2013-06-22 09:16:00,
2013-06-22 05:21:00,72.8,71.3,30.09,SSE,160,0.0,0.0,95,0.00,CLR,,0.00,WeatherDisplay:10.37,2013-06-22 09:21:00,
2013-06-22 05:26:00,72.8,71.3,30.10,SSE,161,0.0,0.0,95,0.00,CLR,,0.00,WeatherDisplay:10.37,2013-06-22 09:26:00,
2013-06-22 05:31:00,72.7,71.2,30.09,SSE,161,0.0,0.0,95,0.00,CLR,,0.00,WeatherDisplay:10.37,2013-06-22 09:31:00,
2013-06-22 05:36:00,72.7,71.2,30.10,WSW,244,0.0,0.0,95,0.00,CLR,,0.00,WeatherDisplay:10.37,2013-06-22 09:36:00,
2013-06-22 05:41:00,72.6,71.1,30.10,WSW,244,0.0,0.0,95,0.00,CLR,,0.00,WeatherDisplay:10.37,2013-06-22 09:41:00,
2013-06-22 05:46:00,72.6,71.1,30.10,WSW,244,0.0,0.0,95,0.00,CLR,,0.00,WeatherDisplay:10.37,2013-06-22 09:46:00,
2013-06-22 05:51:00,72.6,71.1,30.10,WSW,244,0.0,0.0,95,0.00,CLR,,0.00,WeatherDisplay:10.37,2013-06-22 09:51:00,
2013-06-22 05:56:00,72.6,71.1,30.10,WSW,244,0.0,0.0,95,0.00,CLR,,0.00,WeatherDisplay:10.37,2013-06-22 09:56:00,
2013-06-22 06:01:00,72.6,71.1,30.10,WSW,244,0.0,0.0,95,0.00,CLR,,0.00,WeatherDisplay:10.37,2013-06-22 10:01:00,
2013-06-22 06:06:00,72.6,71.1,30.10,WSW,244,0.0,0.0,95,0.00,CLR,,0.00,WeatherDisplay:10.37,2013-06-22 10:06:00,
2013-06-22 06:11:00,72.6,71.1,30.10,WSW,245,0.0,0.0,95,0.00,CLR,,0.00,WeatherDisplay:10.37,2013-06-22 10:11:00,
2013-06-22 06:16:00,72.6,71.1,30.11,WSW,244,0.0,0.0,95,0.00,CLR,,0.00,WeatherDisplay:10.37,2013-06-22 10:16:00,
2013-06-22 06:21:00,72.6,71.1,30.11,WSW,246,0.0,0.0,95,0.00,CLR,,0.00,WeatherDisplay:10.37,2013-06-22 10:21:00,
2013-06-22 06:26:00,72.6,71.1,30.11,WSW,244,0.0,0.0,95,0.00,CLR,,0.00,WeatherDisplay:10.37,2013-06-22 10:26:00,
2013-06-22 06:31:00,72.6,71.1,30.11,WSW,245,0.0,0.0,95,0.00,CLR,,0.00,WeatherDisplay:10.37,2013-06-22 10:31:00,
2013-06-22 06:36:00,72.6,71.1,30.11,WSW,245,0.0,0.0,95,0.00,CLR,,0.00,WeatherDisplay:10.37,2013-06-22 10:36:00,
2013-06-22 06:41:00,72.6,71.1,30.11,WSW,245,0.0,0.0,95,0.00,CLR,,0.00,WeatherDisplay:10.37,2013-06-22 10:41:00,
2013-06-22 06:46:00,72.6,71.1,30.11,WSW,246,0.0,0.0,95,0.00,CLR,,0.00,WeatherDisplay:10.37,2013-06-22 10:46:00,
2013-06-22 06:51:00,72.6,71.1,30.11,WSW,246,0.0,0.0,95,0.00,CLR,,0.00,WeatherDisplay:10.37,2013-06-22 10:51:00,
2013-06-22 06:56:00,72.6,71.1,30.11,WSW,244,0.0,0.0,95,0.00,CLR,,0.00,WeatherDisplay:10.37,2013-06-22 10:56:00,
2013-06-22 07:01:00,72.6,71.1,30.11,WSW,245,0.0,0.0,95,0.00,CLR,,0.00,WeatherDisplay:10.37,2013-06-22 11:01:00,
2013-06-22 07:06:00,72.6,71.1,30.11,WSW,245,0.0,0.0,95,0.00,CLR,,0.00,WeatherDisplay:10.37,2013-06-22 11:06:00,
2013-06-22 07:11:00,72.6,71.1,30.11,WSW,245,0.0,0.0,95,0.00,CLR,,0.00,WeatherDisplay:10.37,2013-06-22 11:11:00,
2013-06-22 07:16:00,72.8,72.8,30.11,WSW,245,0.0,0.0,100,0.00,CLR,,0.00,WeatherDisplay:10.37,2013-06-22 11:16:00,
2013-06-22 07:21:00,72.9,72.9,30.11,WSW,244,0.0,0.0,100,0.00,CLR,,0.00,WeatherDisplay:10.37,2013-06-22 11:21:00,
2013-06-22 07:26:00,73.0,73.0,30.12,WSW,244,0.0,0.0,100,0.00,CLR,,0.00,WeatherDisplay:10.37,2013-06-22 11:26:00,
2013-06-22 07:31:00,73.0,73.0,30.12,WSW,245,0.0,0.0,100,0.00,CLR,,0.00,WeatherDisplay:10.37,2013-06-22 11:31:00,
2013-06-22 07:36:00,73.1,73.1,30.12,WSW,245,0.0,0.0,100,0.00,CLR,,0.00,WeatherDisplay:10.37,2013-06-22 11:36:00,
2013-06-22 07:41:00,73.1,73.1,30.12,WSW,246,0.0,0.0,100,0.00,CLR,,0.00,WeatherDisplay:10.37,2013-06-22 11:41:00,
2013-06-22 07:46:00,73.2,73.2,30.12,WSW,246,0.0,0.0,100,0.00,CLR,,0.00,WeatherDisplay:10.37,2013-06-22 11:46:00,
2013-06-22 07:51:00,73.3,73.3,30.13,WSW,250,0.0,0.0,100,0.00,CLR,,0.00,WeatherDisplay:10.37,2013-06-22 11:51:00,
2013-06-22 07:56:00,73.3,73.3,30.13,NNW,335,0.0,0.0,100,0.00,CLR,,0.00,WeatherDisplay:10.37,2013-06-22 11:56:00,
2013-06-22 08:01:00,73.3,73.3,30.13,NNW,335,0.0,0.0,100,0.00,CLR,,0.00,WeatherDisplay:10.37,2013-06-22 12:01:00,
2013-06-22 08:06:00,73.3,73.3,30.13,NNW,337,0.0,0.0,100,0.00,CLR,,0.00,WeatherDisplay:10.37,2013-06-22 12:06:00,
2013-06-22 08:11:00,73.3,73.3,30.13,NNW,341,0.0,0.0,100,0.00,CLR,,0.00,WeatherDisplay:10.37,2013-06-22 12:11:00,
2013-06-22 08:16:00,73.5,73.5,30.13,NNW,340,0.0,0.0,100,0.00,CLR,,0.00,WeatherDisplay:10.37,2013-06-22 12:16:00,
2013-06-22 08:21:00,73.6,73.6,30.13,NNW,344,0.0,0.0,100,0.00,CLR,,0.00,WeatherDisplay:10.37,2013-06-22 12:21:00,
2013-06-22 08:26:00,73.7,73.7,30.13,North,360,0.0,0.0,100,0.00,CLR,,0.00,WeatherDisplay:10.37,2013-06-22 12:26:00,
2013-06-22 08:31:00,73.8,72.3,30.13,North,360,0.0,0.0,95,0.00,CLR,,0.00,WeatherDisplay:10.37,2013-06-22 12:31:00,
2013-06-22 08:36:00,74.0,72.5,30.13,North,360,0.0,0.0,95,0.00,CLR,,0.00,WeatherDisplay:10.37,2013-06-22 12:36:00,
2013-06-22 08:41:00,74.1,72.6,30.13,North,9,0.0,0.0,95,0.00,CLR,,0.00,WeatherDisplay:10.37,2013-06-22 12:41:00,
2013-06-22 08:46:00,74.3,72.8,30.13,North,9,0.0,0.0,95,0.00,CLR,,0.00,WeatherDisplay:10.37,2013-06-22 12:46:00,
2013-06-22 08:51:00,74.5,73.0,30.13,North,9,0.0,0.0,95,0.00,CLR,,0.00,WeatherDisplay:10.37,2013-06-22 12:51:00,
2013-06-22 08:56:00,74.7,73.2,30.13,NNE,14,0.0,0.0,95,0.00,CLR,,0.00,WeatherDisplay:10.37,2013-06-22 12:56:00,
2013-06-22 09:01:00,74.9,73.1,30.14,NNE,17,0.0,0.0,94,0.00,CLR,,0.00,WeatherDisplay:10.37,2013-06-22 13:01:00,
2013-06-22 09:06:00,75.1,73.3,30.14,NNE,17,0.0,0.0,94,0.00,CLR,,0.00,WeatherDisplay:10.37,2013-06-22 13:06:00,
2013-06-22 09:11:00,75.3,73.5,30.14,NNE,18,0.0,0.0,94,0.00,CLR,,0.00,WeatherDisplay:10.37,2013-06-22 13:11:00,
2013-06-22 09:16:00,75.5,73.7,30.14,NNE,24,0.0,0.1,94,0.00,CLR,,0.00,WeatherDisplay:10.37,2013-06-22 13:16:00,
2013-06-22 09:21:00,75.7,73.5,30.14,NNE,32,2.3,2.3,93,0.00,CLR,,0.00,WeatherDisplay:10.37,2013-06-22 13:21:00,
2013-06-22 09:26:00,76.0,73.5,30.14,North,349,3.0,3.0,92,0.00,CLR,,0.00,WeatherDisplay:10.37,2013-06-22 13:26:00,
2013-06-22 09:31:00,76.5,74.0,30.14,North,11,0.0,0.0,92,0.00,CLR,,0.00,WeatherDisplay:10.37,2013-06-22 13:31:00,
2013-06-22 09:36:00,76.9,73.7,30.14,NNE,19,0.0,0.0,90,0.00,CLR,,0.00,WeatherDisplay:10.37,2013-06-22 13:36:00,
2013-06-22 09:41:00,77.3,73.8,30.14,ENE,57,3.5,0.0,89,0.00,CLR,,0.00,WeatherDisplay:10.37,2013-06-22 13:41:00,
2013-06-22 09:46:00,77.5,73.3,30.14,NE,49,6.9,6.9,87,0.00,CLR,,0.00,WeatherDisplay:10.37,2013-06-22 13:46:00,
2013-06-22 09:51:00,77.7,73.5,30.14,NE,44,3.5,0.0,87,0.00,CLR,,0.00,WeatherDisplay:10.37,2013-06-22 13:51:00,
2013-06-22 09:56:00,78.0,73.5,30.14,NE,47,3.5,3.5,86,0.00,CLR,,0.00,WeatherDisplay:10.37,2013-06-22 13:56:00,
2013-06-22 10:01:00,78.2,73.7,30.14,NE,34,3.5,3.5,86,0.00,CLR,,0.00,WeatherDisplay:10.37,2013-06-22 14:01:00,
2013-06-22 10:06:00,78.5,73.6,30.14,NE,40,6.0,6.0,85,0.00,CLR,,0.00,WeatherDisplay:10.37,2013-06-22 14:06:00,
2013-06-22 10:11:00,78.7,73.8,30.14,NE,37,0.0,0.0,85,0.00,CLR,,0.00,WeatherDisplay:10.37,2013-06-22 14:11:00,
2013-06-22 10:16:00,79.1,73.8,30.13,East,80,7.0,7.0,84,0.00,CLR,,0.00,WeatherDisplay:10.37,2013-06-22 14:16:00,
2013-06-22 10:21:00,79.5,73.9,30.14,ENE,61,3.5,3.5,83,0.00,CLR,,0.00,WeatherDisplay:10.37,2013-06-22 14:21:00,
2013-06-22 10:26:00,79.8,73.8,30.14,NE,36,4.6,4.6,82,0.00,CLR,,0.00,WeatherDisplay:10.37,2013-06-22 14:26:00,
2013-06-22 10:31:00,80.2,73.8,30.14,ENE,70,7.0,7.0,81,0.00,CLR,,0.00,WeatherDisplay:10.37,2013-06-22 14:31:00,
2013-06-22 10:36:00,80.2,73.8,30.13,NNE,30,5.8,5.8,81,0.00,CLR,,0.00,WeatherDisplay:10.37,2013-06-22 14:36:00,
2013-06-22 10:42:00,80.6,73.9,30.13,ENE,67,8.1,8.1,80,0.00,CLR,,0.00,WeatherDisplay:10.37,2013-06-22 14:42:00,
2013-06-22 10:47:00,80.9,74.1,30.13,East,96,6.9,6.9,80,0.00,CLR,,0.00,WeatherDisplay:10.37,2013-06-22 14:47:00,
2013-06-22 10:52:00,81.5,74.4,30.13,East,97,0.0,0.0,79,0.00,CLR,,0.00,WeatherDisplay:10.37,2013-06-22 14:52:00,
2013-06-22 10:57:00,82.2,74.7,30.13,ENE,59,0.0,0.0,78,0.00,CLR,,0.00,WeatherDisplay:10.37,2013-06-22 14:57:00,
2013-06-22 11:02:00,82.9,74.9,30.13,North,355,0.0,0.0,77,0.00,CLR,,0.00,WeatherDisplay:10.37,2013-06-22 15:02:00,
2013-06-22 11:07:00,83.5,73.9,30.13,East,84,2.3,0.0,73,0.00,CLR,,0.00,WeatherDisplay:10.37,2013-06-22 15:07:00,
2013-06-22 11:12:00,83.2,73.6,30.13,East,82,6.9,6.9,73,0.00,CLR,,0.00,WeatherDisplay:10.37,2013-06-22 15:12:00,
2013-06-22 11:17:00,83.0,73.9,30.14,East,83,0.0,0.0,74,0.00,CLR,,0.00,WeatherDisplay:10.37,2013-06-22 15:17:00,
2013-06-22 11:22:00,82.8,74.1,30.14,East,83,1.2,0.0,75,0.00,CLR,,0.00,WeatherDisplay:10.37,2013-06-22 15:22:00,
2013-06-22 11:27:00,82.5,73.0,30.14,East,83,3.5,4.2,73,0.00,CLR,,0.00,WeatherDisplay:10.37,2013-06-22 15:27:00,
2013-06-22 11:32:00,82.1,73.0,30.14,East,80,5.8,5.8,74,0.00,CLR,,0.00,WeatherDisplay:10.37,2013-06-22 15:32:00,
2013-06-22 11:37:00,81.8,73.1,30.14,East,81,0.0,0.0,75,0.00,CLR,,0.00,WeatherDisplay:10.37,2013-06-22 15:37:00,
2013-06-22 11:42:00,81.9,73.2,30.14,East,81,0.0,0.0,75,0.00,CLR,,0.00,WeatherDisplay:10.37,2013-06-22 15:42:00,
2013-06-22 11:47:00,82.1,73.8,30.13,East,81,0.0,0.0,76,0.00,CLR,,0.00,WeatherDisplay:10.37,2013-06-22 15:47:00,
2013-06-22 11:52:00,82.5,74.2,30.13,East,81,0.0,0.0,76,0.00,CLR,,0.00,WeatherDisplay:10.37,2013-06-22 15:52:00,
2013-06-22 11:57:00,82.5,73.8,30.13,NE,37,4.6,0.0,75,0.00,CLR,,0.00,WeatherDisplay:10.37,2013-06-22 15:57:00,
2013-06-22 12:02:00,82.7,74.0,30.13,NE,37,0.0,0.0,75,0.00,CLR,,0.00,WeatherDisplay:10.37,2013-06-22 16:02:00,
2013-06-22 12:07:00,82.9,74.6,30.13,NE,37,0.0,0.0,76,0.00,CLR,,0.00,WeatherDisplay:10.37,2013-06-22 16:07:00,
2013-06-22 12:12:00,82.7,74.0,30.13,NNE,32,0.0,0.0,75,0.00,CLR,,0.00,WeatherDisplay:10.37,2013-06-22 16:12:00,
2013-06-22 12:17:00,82.5,73.8,30.13,ESE,119,7.0,7.0,75,0.00,CLR,,0.00,WeatherDisplay:10.37,2013-06-22 16:17:00,
2013-06-22 12:22:00,82.5,74.2,30.13,ESE,123,5.8,5.8,76,0.00,CLR,,0.00,WeatherDisplay:10.37,2013-06-22 16:22:00,
2013-06-22 12:27:00,82.7,74.4,30.13,WNW,286,0.0,0.0,76,0.00,CLR,,0.00,WeatherDisplay:10.37,2013-06-22 16:27:00,
2013-06-22 12:32:00,82.7,72.7,30.13,East,93,8.1,8.1,72,0.00,CLR,,0.00,WeatherDisplay:10.37,2013-06-22 16:32:00,
2013-06-22 12:37:00,83.0,74.3,30.13,NNE,25,4.6,4.6,75,0.00,CLR,,0.00,WeatherDisplay:10.37,2013-06-22 16:37:00,
2013-06-22 12:42:00,83.8,74.2,30.13,East,86,5.0,5.0,73,0.00,CLR,,0.00,WeatherDisplay:10.37,2013-06-22 16:42:00,
2013-06-22 12:47:00,84.1,72.8,30.13,SE,128,5.8,5.8,69,0.00,CLR,,0.00,WeatherDisplay:10.37,2013-06-22 16:47:00,
2013-06-22 12:52:00,84.1,74.1,30.13,ENE,63,6.9,6.9,72,0.00,CLR,,0.00,WeatherDisplay:10.37,2013-06-22 16:52:00,
2013-06-22 12:57:00,84.2,75.0,30.13,WNW,293,3.5,3.5,74,0.00,CLR,,0.00,WeatherDisplay:10.37,2013-06-22 16:57:00,
2013-06-22 13:02:00,83.8,74.6,30.13,WNW,301,0.0,0.0,74,0.00,CLR,,0.00,WeatherDisplay:10.37,2013-06-22 17:02:00,
2013-06-22 13:07:00,83.3,74.5,30.13,NW,314,1.2,0.0,75,0.00,CLR,,0.00,WeatherDisplay:10.37,2013-06-22 17:07:00,
2013-06-22 13:12:00,82.9,74.9,30.13,NW,315,0.0,0.0,77,0.00,CLR,,0.00,WeatherDisplay:10.37,2013-06-22 17:12:00,
2013-06-22 13:17:00,82.7,75.1,30.13,NW,315,0.0,0.0,78,0.01,RA,,0.01,WeatherDisplay:10.37,2013-06-22 17:17:00,
2013-06-22 13:22:00,82.4,75.6,30.13,WNW,295,0.0,0.0,80,0.02,RA,,0.03,WeatherDisplay:10.37,2013-06-22 17:22:00,
2013-06-22 13:27:00,82.0,75.6,30.13,WNW,291,0.0,0.0,81,0.04,RA,,0.04,WeatherDisplay:10.37,2013-06-22 17:27:00,
2013-06-22 13:32:00,81.2,75.5,30.13,WNW,292,0.0,0.0,83,0.05,RA,,0.05,WeatherDisplay:10.37,2013-06-22 17:32:00,
2013-06-22 13:37:00,80.3,75.4,30.13,WNW,294,0.0,0.0,85,0.09,RA,,0.10,WeatherDisplay:10.37,2013-06-22 17:37:00,
2013-06-22 13:42:00,79.6,75.4,30.13,WNW,292,0.0,0.0,87,0.11,RA,,0.11,WeatherDisplay:10.37,2013-06-22 17:42:00,
2013-06-22 13:47:00,79.2,75.0,30.13,WNW,292,0.0,0.0,87,0.12,RA,,0.12,WeatherDisplay:10.37,2013-06-22 17:47:00,
2013-06-22 13:52:00,78.7,74.8,30.13,SW,227,0.0,0.0,88,0.12,RA,,0.12,WeatherDisplay:10.37,2013-06-22 17:52:00,
2013-06-22 13:57:00,78.5,74.6,30.13,SW,228,0.0,0.0,88,0.12,CLR,,0.12,WeatherDisplay:10.37,2013-06-22 17:57:00,
2013-06-22 14:02:00,78.3,74.8,30.13,ESE,115,0.0,0.0,89,0.12,CLR,,0.12,WeatherDisplay:10.37,2013-06-22 18:02:00,
2013-06-22 14:07:00,78.1,74.9,30.14,SSW,199,0.0,0.0,90,0.12,CLR,,0.13,WeatherDisplay:10.37,2013-06-22 18:07:00,
2013-06-22 14:12:00,77.9,74.7,30.13,SSW,200,0.0,0.0,90,0.13,RA,,0.13,WeatherDisplay:10.37,2013-06-22 18:12:00,
2013-06-22 14:17:00,77.7,74.5,30.13,SSW,199,0.0,0.0,90,0.12,RA,,0.13,WeatherDisplay:10.37,2013-06-22 18:17:00,
2013-06-22 14:22:00,77.5,74.7,30.13,SSW,200,0.0,0.0,91,0.11,CLR,,0.13,WeatherDisplay:10.37,2013-06-22 18:22:00,
2013-06-22 14:27:00,77.3,74.5,30.13,West,260,1.2,0.0,91,0.09,CLR,,0.13,WeatherDisplay:10.37,2013-06-22 18:27:00,
2013-06-22 14:32:00,76.8,73.6,30.13,West,261,0.0,0.0,90,0.09,RA,,0.14,WeatherDisplay:10.37,2013-06-22 18:32:00,
2013-06-22 14:37:00,76.3,73.5,30.12,NNE,29,0.0,0.0,91,0.06,RA,,0.15,WeatherDisplay:10.37,2013-06-22 18:37:00,
2013-06-22 14:42:00,76.0,73.2,30.11,NNE,29,0.0,0.0,91,0.04,RA,,0.15,WeatherDisplay:10.37,2013-06-22 18:42:00,
2013-06-22 14:47:00,75.8,73.0,30.12,NNE,30,0.0,0.0,91,0.04,RA,,0.16,WeatherDisplay:10.37,2013-06-22 18:47:00,
2013-06-22 14:52:00,75.6,73.1,30.13,NNE,26,0.0,0.0,92,0.04,RA,,0.16,WeatherDisplay:10.37,2013-06-22 18:52:00,
2013-06-22 14:58:00,75.3,72.5,30.12,NNE,26,0.0,0.0,91,0.04,CLR,,0.16,WeatherDisplay:10.37,2013-06-22 18:58:00,
2013-06-22 15:03:00,75.2,72.7,30.12,NNE,26,0.0,0.0,92,0.04,CLR,,0.16,WeatherDisplay:10.37,2013-06-22 19:03:00,
2013-06-22 15:08:00,75.1,72.6,30.12,East,86,0.0,0.0,92,0.03,CLR,,0.16,WeatherDisplay:10.37,2013-06-22 19:08:00,
2013-06-22 15:13:00,75.1,72.6,30.12,East,86,0.0,0.0,92,0.03,CLR,,0.16,WeatherDisplay:10.37,2013-06-22 19:13:00,
2013-06-22 15:18:00,75.0,72.5,30.12,NE,55,0.0,0.0,92,0.04,RA,,0.17,WeatherDisplay:10.37,2013-06-22 19:18:00,
2013-06-22 15:23:00,74.9,72.7,30.12,NE,53,0.0,0.0,93,0.05,RA,,0.18,WeatherDisplay:10.37,2013-06-22 19:23:00,
2013-06-22 15:28:00,74.9,72.7,30.12,NE,55,0.0,0.0,93,0.05,RA,,0.18,WeatherDisplay:10.37,2013-06-22 19:28:00,
2013-06-22 15:33:00,74.9,72.7,30.13,NE,54,0.0,0.0,93,0.04,CLR,,0.18,WeatherDisplay:10.37,2013-06-22 19:33:00,
2013-06-22 15:38:00,74.9,72.7,30.13,ENE,71,0.0,0.0,93,0.03,CLR,,0.18,WeatherDisplay:10.37,2013-06-22 19:38:00,
2013-06-22 15:43:00,74.9,72.7,30.13,ENE,71,0.0,0.0,93,0.03,CLR,,0.18,WeatherDisplay:10.37,2013-06-22 19:43:00,
2013-06-22 15:48:00,74.8,72.6,30.13,ENE,71,0.0,0.0,93,0.02,CLR,,0.18,WeatherDisplay:10.37,2013-06-22 19:48:00,
2013-06-22 15:53:00,74.7,72.5,30.13,ENE,71,0.0,0.0,93,0.02,CLR,,0.18,WeatherDisplay:10.37,2013-06-22 19:53:00,
2013-06-22 15:58:00,74.7,72.5,30.13,ENE,71,0.0,0.0,93,0.02,CLR,,0.18,WeatherDisplay:10.37,2013-06-22 19:58:00,
2013-06-22 16:03:00,74.7,72.5,30.13,ENE,71,0.0,0.0,93,0.02,CLR,,0.18,WeatherDisplay:10.37,2013-06-22 20:03:00,
2013-06-22 16:08:00,74.7,72.9,30.13,ENE,71,0.0,0.0,94,0.02,CLR,,0.18,WeatherDisplay:10.37,2013-06-22 20:08:00,
2013-06-22 16:13:00,74.6,72.8,30.13,ENE,71,0.0,0.0,94,0.01,CLR,,0.18,WeatherDisplay:10.37,2013-06-22 20:13:00,
2013-06-22 16:18:00,74.6,72.8,30.13,NNW,340,5.0,5.0,94,0.01,CLR,,0.18,WeatherDisplay:10.37,2013-06-22 20:18:00,
2013-06-22 16:23:00,74.4,72.6,30.13,ENE,65,0.0,0.0,94,0.00,CLR,,0.18,WeatherDisplay:10.37,2013-06-22 20:23:00,
2013-06-22 16:28:00,74.1,72.3,30.12,NNW,331,0.0,0.0,94,0.01,RA,,0.19,WeatherDisplay:10.37,2013-06-22 20:28:00,
2013-06-22 16:33:00,74.0,72.2,30.12,NE,40,1.2,0.0,94,0.01,RA,,0.19,WeatherDisplay:10.37,2013-06-22 20:33:00,
2013-06-22 16:38:00,73.8,72.0,30.12,NE,38,0.0,0.0,94,0.01,CLR,,0.19,WeatherDisplay:10.37,2013-06-22 20:38:00,
2013-06-22 16:43:00,73.7,71.9,30.12,NE,38,0.0,0.0,94,0.01,CLR,,0.19,WeatherDisplay:10.37,2013-06-22 20:43:00,
2013-06-22 16:48:00,73.7,71.9,30.11,NE,38,0.0,0.0,94,0.01,CLR,,0.19,WeatherDisplay:10.37,2013-06-22 20:48:00,
2013-06-22 16:53:00,73.8,72.0,30.11,NE,38,0.0,0.0,94,0.01,CLR,,0.19,WeatherDisplay:10.37,2013-06-22 20:53:00,
2013-06-22 16:58:00,73.8,72.0,30.11,NE,38,0.0,0.0,94,0.01,CLR,,0.19,WeatherDisplay:10.37,2013-06-22 20:58:00,
2013-06-22 17:03:00,73.9,72.1,30.12,NE,38,0.0,0.0,94,0.01,CLR,,0.19,WeatherDisplay:10.37,2013-06-22 21:03:00,
2013-06-22 17:08:00,74.1,72.3,30.11,NE,38,0.0,0.0,94,0.01,CLR,,0.19,WeatherDisplay:10.37,2013-06-22 21:08:00,
2013-06-22 17:13:00,74.2,72.7,30.12,NE,49,0.0,0.0,95,0.01,CLR,,0.19,WeatherDisplay:10.37,2013-06-22 21:13:00,
2013-06-22 17:18:00,74.4,72.9,30.12,NE,49,0.0,0.0,95,0.01,CLR,,0.19,WeatherDisplay:10.37,2013-06-22 21:18:00,
2013-06-22 17:23:00,74.6,73.1,30.12,NE,49,0.0,0.0,95,0.01,CLR,,0.19,WeatherDisplay:10.37,2013-06-22 21:23:00,
2013-06-22 17:28:00,74.8,73.3,30.12,NE,49,0.0,0.0,95,0.01,RA,,0.20,WeatherDisplay:10.37,2013-06-22 21:28:00,
2013-06-22 17:33:00,74.9,73.4,30.12,NE,41,1.2,1.2,95,0.01,RA,,0.20,WeatherDisplay:10.37,2013-06-22 21:33:00,
2013-06-22 17:38:00,74.5,73.0,30.11,NE,44,0.0,0.0,95,0.01,,,0.20,WeatherDisplay:10.37,2013-06-22 21:38:00,
2013-06-22 17:43:00,74.1,72.3,30.11,NE,38,5.8,5.8,94,0.01,CLR,,0.20,WeatherDisplay:10.37,2013-06-22 21:43:00,
2013-06-22 17:48:00,74.1,72.3,30.11,NE,38,4.0,0.0,94,0.01,CLR,,0.20,WeatherDisplay:10.37,2013-06-22 21:48:00,
2013-06-22 17:53:00,74.1,72.6,30.10,NE,38,0.0,0.0,95,0.01,CLR,,0.20,WeatherDisplay:10.37,2013-06-22 21:53:00,
2013-06-22 17:58:00,74.2,72.7,30.11,NE,38,0.0,0.0,95,0.01,CLR,,0.20,WeatherDisplay:10.37,2013-06-22 21:58:00,
2013-06-22 18:03:00,74.2,72.7,30.10,NE,38,0.0,0.0,95,0.01,CLR,,0.20,WeatherDisplay:10.37,2013-06-22 22:03:00,
2013-06-22 18:08:00,74.2,72.7,30.10,NE,38,0.0,0.0,95,0.01,CLR,,0.20,WeatherDisplay:10.37,2013-06-22 22:08:00,
2013-06-22 18:13:00,74.3,72.8,30.10,NE,38,0.0,0.0,95,0.01,CLR,,0.20,WeatherDisplay:10.37,2013-06-22 22:13:00,
2013-06-22 18:18:00,74.3,72.8,30.10,NE,38,0.0,0.0,95,0.01,CLR,,0.20,WeatherDisplay:10.37,2013-06-22 22:18:00,
2013-06-22 18:23:00,74.4,72.9,30.10,NE,38,0.0,0.0,95,0.01,CLR,,0.20,WeatherDisplay:10.37,2013-06-22 22:23:00,
2013-06-22 18:28:00,74.5,73.0,30.10,NE,38,0.0,0.0,95,0.00,CLR,,0.20,WeatherDisplay:10.37,2013-06-22 22:28:00,
2013-06-22 18:33:00,74.8,73.3,30.09,NE,38,0.0,0.0,95,0.00,CLR,,0.20,WeatherDisplay:10.37,2013-06-22 22:33:00,
2013-06-22 18:38:00,75.1,73.6,30.09,NE,38,0.0,0.0,95,0.00,CLR,,0.20,WeatherDisplay:10.37,2013-06-22 22:38:00,
2013-06-22 18:43:00,75.2,73.7,30.09,NE,38,0.0,0.0,95,0.00,CLR,,0.20,WeatherDisplay:10.37,2013-06-22 22:43:00,
2013-06-22 18:48:00,75.3,73.8,30.08,NE,38,0.0,0.0,95,0.00,CLR,,0.20,WeatherDisplay:10.37,2013-06-22 22:48:00,
2013-06-22 18:53:00,75.2,73.7,30.08,NE,38,0.0,0.0,95,0.00,CLR,,0.20,WeatherDisplay:10.37,2013-06-22 22:53:00,
2013-06-22 18:58:00,75.4,73.9,30.08,NE,38,0.0,0.0,95,0.00,CLR,,0.20,WeatherDisplay:10.37,2013-06-22 22:58:00,
2013-06-22 19:03:00,75.5,74.0,30.08,NE,38,0.0,0.0,95,0.00,CLR,,0.20,WeatherDisplay:10.37,2013-06-22 23:03:00,
2013-06-22 19:08:00,75.6,74.1,30.08,NE,38,0.0,0.0,95,0.00,CLR,,0.20,WeatherDisplay:10.37,2013-06-22 23:08:00,
2013-06-22 19:13:00,75.6,74.1,30.08,NE,38,0.0,0.0,95,0.00,CLR,,0.20,WeatherDisplay:10.37,2013-06-22 23:13:00,
2013-06-22 19:18:00,75.7,74.2,30.08,NE,38,0.0,0.0,95,0.00,CLR,,0.20,WeatherDisplay:10.37,2013-06-22 23:18:00,
2013-06-22 19:23:00,75.7,74.2,30.08,NE,38,0.0,0.0,95,0.00,CLR,,0.20,WeatherDisplay:10.37,2013-06-22 23:23:00,
2013-06-22 19:28:00,75.7,74.2,30.09,NE,38,0.0,0.0,95,0.00,CLR,,0.20,WeatherDisplay:10.37,2013-06-22 23:28:00,
2013-06-22 19:33:00,75.7,74.2,30.09,NE,38,0.0,0.0,95,0.00,CLR,,0.20,WeatherDisplay:10.37,2013-06-22 23:33:00,
2013-06-22 19:38:00,75.6,73.8,30.09,NE,38,0.0,0.0,94,0.00,CLR,,0.20,WeatherDisplay:10.37,2013-06-22 23:38:00,
2013-06-22 19:43:00,75.4,73.6,30.09,NE,38,0.0,0.0,94,0.00,CLR,,0.20,WeatherDisplay:10.37,2013-06-22 23:43:00,
2013-06-22 19:48:00,75.3,73.5,30.09,NE,38,0.0,0.0,94,0.00,CLR,,0.20,WeatherDisplay:10.37,2013-06-22 23:48:00,
2013-06-22 19:53:00,75.1,73.3,30.08,NE,38,0.0,0.0,94,0.00,CLR,,0.20,WeatherDisplay:10.37,2013-06-22 23:53:00,
2013-06-22 19:58:00,75.0,73.2,30.09,NNE,25,0.0,0.0,94,0.00,CLR,,0.20,WeatherDisplay:10.37,2013-06-22 23:58:00,
2013-06-22 20:03:00,74.8,73.0,30.09,NNE,25,0.0,0.0,94,0.00,CLR,,0.20,WeatherDisplay:10.37,2013-06-23 00:03:00,
2013-06-22 20:08:00,74.7,72.9,30.09,NNE,25,0.0,0.0,94,0.00,CLR,,0.20,WeatherDisplay:10.37,2013-06-23 00:08:00,
2013-06-22 20:13:00,74.6,72.8,30.09,SSW,207,0.0,0.0,94,0.00,CLR,,0.20,WeatherDisplay:10.37,2013-06-23 00:13:00,
2013-06-22 20:18:00,74.5,72.7,30.10,West,260,0.0,0.0,94,0.00,CLR,,0.20,WeatherDisplay:10.37,2013-06-23 00:18:00,
2013-06-22 20:23:00,74.4,72.6,30.10,West,259,0.0,0.0,94,0.00,CLR,,0.20,WeatherDisplay:10.37,2013-06-23 00:23:00,
2013-06-22 20:28:00,74.3,72.5,30.10,West,260,0.0,0.0,94,0.00,CLR,,0.20,WeatherDisplay:10.37,2013-06-23 00:28:00,
2013-06-22 20:33:00,74.3,72.5,30.10,West,259,0.0,0.0,94,0.00,CLR,,0.20,WeatherDisplay:10.37,2013-06-23 00:33:00,
2013-06-22 20:38:00,74.2,72.4,30.10,West,259,0.0,0.0,94,0.00,CLR,,0.20,WeatherDisplay:10.37,2013-06-23 00:38:00,
2013-06-22 20:43:00,74.2,72.4,30.10,NNW,346,0.0,0.0,94,0.00,CLR,,0.20,WeatherDisplay:10.37,2013-06-23 00:43:00,
2013-06-22 20:48:00,74.1,72.3,30.10,NNW,346,0.0,0.0,94,0.00,CLR,,0.20,WeatherDisplay:10.37,2013-06-23 00:48:00,
2013-06-22 20:53:00,74.0,72.2,30.10,NNW,346,0.0,0.0,94,0.00,CLR,,0.20,WeatherDisplay:10.37,2013-06-23 00:53:00,
2013-06-22 20:58:00,73.9,72.1,30.11,NNW,346,0.0,0.0,94,0.00,CLR,,0.20,WeatherDisplay:10.37,2013-06-23 00:58:00,
2013-06-22 21:03:00,73.8,72.0,30.10,NNW,346,0.0,0.0,94,0.00,CLR,,0.20,WeatherDisplay:10.37,2013-06-23 01:03:00,
2013-06-22 21:08:00,73.7,71.9,30.11,NNW,346,0.0,0.0,94,0.00,CLR,,0.20,WeatherDisplay:10.37,2013-06-23 01:08:00,
2013-06-22 21:13:00,73.6,71.8,30.11,NNW,346,0.0,0.0,94,0.00,CLR,,0.20,WeatherDisplay:10.37,2013-06-23 01:13:00,
2013-06-22 21:18:00,73.5,71.7,30.11,NNW,346,0.0,0.0,94,0.00,CLR,,0.20,WeatherDisplay:10.37,2013-06-23 01:18:00,
2013-06-22 21:23:00,73.5,71.7,30.11,NNW,346,0.0,0.0,94,0.00,CLR,,0.20,WeatherDisplay:10.37,2013-06-23 01:23:00,
2013-06-22 21:28:00,73.4,71.6,30.11,NNW,346,0.0,0.0,94,0.00,CLR,,0.20,WeatherDisplay:10.37,2013-06-23 01:28:00,
2013-06-22 21:33:00,73.3,71.5,30.11,NNW,346,0.0,0.0,94,0.00,CLR,,0.20,WeatherDisplay:10.37,2013-06-23 01:33:00,
2013-06-22 21:38:00,73.2,71.4,30.11,NNW,346,0.0,0.0,94,0.00,CLR,,0.20,WeatherDisplay:10.37,2013-06-23 01:38:00,
2013-06-22 21:43:00,73.1,71.3,30.11,NNW,346,0.0,0.0,94,0.00,CLR,,0.20,WeatherDisplay:10.37,2013-06-23 01:43:00,
2013-06-22 21:48:00,73.1,71.3,30.11,NNW,346,0.0,0.0,94,0.00,CLR,,0.20,WeatherDisplay:10.37,2013-06-23 01:48:00,
2013-06-22 21:53:00,73.0,71.2,30.11,NNW,346,0.0,0.0,94,0.00,CLR,,0.20,WeatherDisplay:10.37,2013-06-23 01:53:00,
2013-06-22 21:58:00,72.9,71.1,30.11,NNW,346,0.0,0.0,94,0.00,CLR,,0.20,WeatherDisplay:10.37,2013-06-23 01:58:00,
2013-06-22 22:03:00,72.8,71.0,30.11,NNW,346,0.0,0.0,94,0.00,CLR,,0.20,WeatherDisplay:10.37,2013-06-23 02:03:00,
2013-06-22 22:08:00,72.8,71.0,30.12,NNW,346,0.0,0.0,94,0.00,CLR,,0.20,WeatherDisplay:10.37,2013-06-23 02:08:00,
2013-06-22 22:13:00,72.7,70.9,30.12,NNW,346,0.0,0.0,94,0.00,CLR,,0.20,WeatherDisplay:10.37,2013-06-23 02:13:00,
2013-06-22 22:18:00,72.7,70.9,30.12,NNW,346,0.0,0.0,94,0.00,CLR,,0.20,WeatherDisplay:10.37,2013-06-23 02:18:00,
2013-06-22 22:23:00,72.6,70.8,30.12,NNW,346,0.0,0.0,94,0.00,CLR,,0.20,WeatherDisplay:10.37,2013-06-23 02:23:00,
2013-06-22 22:28:00,72.6,71.1,30.11,NNW,346,0.0,0.0,95,0.00,CLR,,0.20,WeatherDisplay:10.37,2013-06-23 02:28:00,
2013-06-22 22:33:00,72.7,71.2,30.12,NNW,346,0.0,0.0,95,0.00,CLR,,0.20,WeatherDisplay:10.37,2013-06-23 02:33:00,
2013-06-22 22:38:00,72.8,71.3,30.12,NNW,346,0.0,0.0,95,0.00,CLR,,0.20,WeatherDisplay:10.37,2013-06-23 02:38:00,
2013-06-22 22:43:00,72.7,71.2,30.12,NNW,346,0.0,0.0,95,0.00,CLR,,0.20,WeatherDisplay:10.37,2013-06-23 02:43:00,
2013-06-22 22:48:00,72.7,71.2,30.12,NNW,346,0.0,0.0,95,0.00,CLR,,0.20,WeatherDisplay:10.37,2013-06-23 02:48:00,
2013-06-22 22:53:00,72.7,71.2,30.12,NNW,346,0.0,0.0,95,0.00,CLR,,0.20,WeatherDisplay:10.37,2013-06-23 02:53:00,
2013-06-22 22:58:00,72.6,71.1,30.12,NNW,346,0.0,0.0,95,0.00,CLR,,0.20,WeatherDisplay:10.37,2013-06-23 02:58:00,
2013-06-22 23:03:00,72.6,71.1,30.12,NNW,346,0.0,0.0,95,0.00,CLR,,0.20,WeatherDisplay:10.37,2013-06-23 03:03:00,
2013-06-22 23:08:00,72.6,71.1,30.11,NNW,346,0.0,0.0,95,0.00,CLR,,0.20,WeatherDisplay:10.37,2013-06-23 03:08:00,
2013-06-22 23:13:00,72.5,71.0,30.11,NNW,346,0.0,0.0,95,0.00,CLR,,0.20,WeatherDisplay:10.37,2013-06-23 03:13:00,
2013-06-22 23:18:00,72.4,70.9,30.12,NNW,346,0.0,0.0,95,0.00,CLR,,0.20,WeatherDisplay:10.37,2013-06-23 03:18:00,
2013-06-22 23:23:00,72.4,70.9,30.12,NNW,346,0.0,0.0,95,0.00,CLR,,0.20,WeatherDisplay:10.37,2013-06-23 03:23:00,
2013-06-22 23:28:00,72.3,70.8,30.12,NNW,346,0.0,0.0,95,0.00,CLR,,0.20,WeatherDisplay:10.37,2013-06-23 03:28:00,
2013-06-22 23:33:00,72.2,70.7,30.12,NNW,346,0.0,0.0,95,0.00,CLR,,0.20,WeatherDisplay:10.37,2013-06-23 03:33:00,
2013-06-22 23:38:00,72.1,70.6,30.12,NNW,346,0.0,0.0,95,0.00,CLR,,0.20,WeatherDisplay:10.37,2013-06-23 03:38:00,
2013-06-22 23:43:00,72.1,70.6,30.13,NNW,346,0.0,0.0,95,0.00,CLR,,0.20,WeatherDisplay:10.37,2013-06-23 03:43:00,
2013-06-22 23:48:00,72.1,70.6,30.13,NNW,346,0.0,0.0,95,0.00,CLR,,0.20,WeatherDisplay:10.37,2013-06-23 03:48:00,
2013-06-22 23:53:00,72.0,70.5,30.12,NNW,346,0.0,0.0,95,0.00,CLR,,0.20,WeatherDisplay:10.37,2013-06-23 03:53:00,
2013-06-22 23:58:00,72.0,70.5,30.13,NNW,346,0.0,0.0,95,0.00,CLR,,0.20,WeatherDisplay:10.37,2013-06-23 03:58:00,